This is the latest recevied weather packets stored in our database for station/object KC8YVF-1. If no packets are shown the sender has not sent any weather packets the latest 1 day(s).
| Time | Temp. | Humidity | Pressure | Rain* | Wind** | Luminosity | Snow |
|---|---|---|---|---|---|---|---|
| 1778020508 | 15° C | 37% | 993.2 hPa | 0 mm | - | - | - |
| 1778019309 | 15° C | 38% | 993.1 hPa | 0 mm | - | - | - |
| 1778018109 | 15.56° C | 37% | 993.2 hPa | 0 mm | - | - | - |
| 1778018030 | 15.56° C | 37% | 993.2 hPa | 0 mm | - | - | - |
| 1778017810 | 15.56° C | 37% | 993.2 hPa | 0 mm | - | - | - |
| 1778017508 | 16.11° C | 37% | 992.9 hPa | 0 mm | - | - | - |
| 1778016008 | 16.11° C | 37% | 993.1 hPa | 0 mm | - | - | - |
| 1778015708 | 16.11° C | 38% | 992.9 hPa | 0 mm | - | - | - |
| 1778014209 | 16.67° C | 37% | 993.2 hPa | 0 mm | - | - | - |
| 1778013908 | 16.67° C | 37% | 992.9 hPa | 0 mm | - | - | - |
| 1778008808 | 16.67° C | 40% | 992.8 hPa | 0 mm | - | - | - |
| 1778006409 | 17.22° C | 44% | 992.8 hPa | 0 mm | - | - | - |
| 1778006332 | 17.22° C | 45% | 992.8 hPa | 0 mm | - | - | - |
| 1778005509 | 17.22° C | 46% | 992.6 hPa | 0 mm | - | - | - |
| 1778004910 | 16.67° C | 46% | 992.5 hPa | 0 mm | - | - | - |
| 1778004610 | 16.67° C | 46% | 992.5 hPa | 0 mm | - | - | - |
| 1778004531 | 16.67° C | 47% | 992.5 hPa | 0 mm | - | - | - |
| 1778001909 | 15.56° C | 51% | 992.2 hPa | 0 mm | - | - | - |
| 1778001832 | 15.56° C | 51% | 992.2 hPa | 0 mm | - | - | - |
| 1778000109 | 15.56° C | 51% | 992.2 hPa | 0 mm | - | - | - |
| 1777997709 | 15° C | 54% | 992.8 hPa | 0 mm | - | - | - |
| 1777996431 | 13.33° C | 55% | 993.2 hPa | 0 mm | - | - | - |
| 1777995909 | 13.33° C | 56% | 993.2 hPa | 0 mm | - | - | - |
| 1777995531 | 12.78° C | 57% | 993.1 hPa | 0 mm | - | - | - |
| 1777994709 | 12.78° C | 58% | 992.8 hPa | 0 mm | - | - | - |
* Rain latest hour (hover to see other rain measurements)
** Current wind speed in m/s (hover to see current wind gust speed)